Time,TemperatureF,DewpointF,PressureIn,WindDirection,WindDirectionDegrees,WindSpeedMPH,WindSpeedGustMPH,Humidity,HourlyPrecipIn,Conditions,Clouds,dailyrainin,SoftwareType,DateUTC
2013-06-12 00:03:00,64.0,57.0,29.80,WNW,294,1.0,2.0,78,0.00,,,0.00,,2013-06-12 05:03:00,
2013-06-12 00:12:00,64.0,57.0,29.80,WNW,294,1.0,2.0,78,0.00,,,0.00,,2013-06-12 05:12:00,
2013-06-12 00:22:00,63.0,56.0,29.79,WNW,300,1.0,2.0,77,0.00,,,0.00,,2013-06-12 05:22:00,
2013-06-12 00:32:00,62.0,56.0,29.79,WNW,300,0.0,1.0,81,0.00,,,0.00,,2013-06-12 05:32:00,
2013-06-12 00:42:00,62.0,56.0,29.79,WNW,300,0.0,1.0,81,0.00,,,0.00,,2013-06-12 05:42:00,
2013-06-12 00:52:00,61.0,56.0,29.79,WNW,300,0.0,0.0,85,0.00,,,0.00,,2013-06-12 05:52:00,
2013-06-12 01:02:00,60.0,55.0,29.79,WNW,300,0.0,1.0,84,0.00,,,0.00,,2013-06-12 06:02:00,
2013-06-12 01:12:00,60.0,55.0,29.79,WNW,300,0.0,1.0,84,0.00,,,0.00,,2013-06-12 06:12:00,
2013-06-12 01:22:00,61.0,56.0,29.80,West,280,0.0,2.0,83,0.00,,,0.00,,2013-06-12 06:22:00,
2013-06-12 01:32:00,60.0,55.0,29.80,WNW,293,0.0,2.0,85,0.00,,,0.00,,2013-06-12 06:32:00,
2013-06-12 01:42:00,60.0,55.0,29.80,WNW,293,0.0,2.0,85,0.00,,,0.00,,2013-06-12 06:42:00,
2013-06-12 01:52:00,61.0,55.0,29.81,WNW,302,2.0,4.0,80,0.00,,,0.00,,2013-06-12 06:52:00,
2013-06-12 02:02:00,60.0,55.0,29.80,WNW,301,1.0,3.0,84,0.00,,,0.00,,2013-06-12 07:02:00,
2013-06-12 02:12:00,60.0,55.0,29.80,NNW,327,0.0,2.0,83,0.00,,,0.00,,2013-06-12 07:12:00,
2013-06-12 02:22:00,59.0,54.0,29.80,WNW,302,1.0,2.0,83,0.00,,,0.00,,2013-06-12 07:22:00,
2013-06-12 02:33:00,59.0,54.0,29.80,WNW,302,1.0,2.0,83,0.00,,,0.00,,2013-06-12 07:33:00,
2013-06-12 02:43:00,58.0,54.0,29.80,WNW,297,1.0,3.0,85,0.00,,,0.00,,2013-06-12 07:43:00,
2013-06-12 02:53:00,59.0,54.0,29.80,NW,305,0.0,2.0,82,0.00,,,0.00,,2013-06-12 07:53:00,
2013-06-12 03:02:00,59.0,54.0,29.80,NW,305,0.0,2.0,82,0.00,,,0.00,,2013-06-12 08:02:00,
2013-06-12 03:12:00,59.0,52.0,29.80,NNW,336,0.0,2.0,79,0.00,,,0.00,,2013-06-12 08:12:00,
2013-06-12 03:22:00,59.0,53.0,29.80,NNW,327,0.0,2.0,80,0.00,,,0.00,,2013-06-12 08:22:00,
2013-06-12 03:33:00,59.0,53.0,29.80,NNW,327,0.0,2.0,80,0.00,,,0.00,,2013-06-12 08:33:00,
2013-06-12 03:43:00,58.0,53.0,29.80,North,1,0.0,2.0,82,0.00,,,0.00,,2013-06-12 08:43:00,
2013-06-12 03:53:00,58.0,52.0,29.80,North,359,1.0,2.0,81,0.00,,,0.00,,2013-06-12 08:53:00,
2013-06-12 04:01:00,58.0,52.0,29.80,North,359,1.0,2.0,81,0.00,,,0.00,,2013-06-12 09:01:00,
2013-06-12 04:11:00,58.0,53.0,29.81,NW,316,1.0,2.0,83,0.00,,,0.00,,2013-06-12 09:11:00,
2013-06-12 04:22:00,56.0,52.0,29.82,WNW,285,3.0,5.0,86,0.00,,,0.00,,2013-06-12 09:22:00,
2013-06-12 04:33:00,56.0,52.0,29.82,WNW,285,3.0,5.0,86,0.00,,,0.00,,2013-06-12 09:33:00,
2013-06-12 04:42:00,56.0,52.0,29.82,NW,315,1.0,4.0,88,0.00,,,0.00,,2013-06-12 09:42:00,
2013-06-12 04:53:00,56.0,52.0,29.82,NNW,345,2.0,4.0,86,0.00,,,0.00,,2013-06-12 09:53:00,
2013-06-12 05:01:00,56.0,52.0,29.82,NNW,345,2.0,4.0,86,0.00,,,0.00,,2013-06-12 10:01:00,
2013-06-12 05:11:00,56.0,52.0,29.83,North,8,3.0,5.0,87,0.00,,,0.00,,2013-06-12 10:11:00,
2013-06-12 05:23:00,56.0,52.0,29.82,NNE,29,2.0,3.0,87,0.00,,,0.00,,2013-06-12 10:23:00,
2013-06-12 05:33:00,56.0,52.0,29.82,NNE,29,2.0,3.0,87,0.00,,,0.00,,2013-06-12 10:33:00,
2013-06-12 05:43:00,56.0,52.0,29.83,North,4,1.0,4.0,87,0.00,,,0.00,,2013-06-12 10:43:00,
2013-06-12 05:53:00,56.0,52.0,29.83,North,5,0.0,2.0,87,0.00,,,0.00,,2013-06-12 10:53:00,
2013-06-12 06:02:00,56.0,52.0,29.83,North,5,0.0,2.0,87,0.00,,,0.00,,2013-06-12 11:02:00,
2013-06-12 06:12:00,56.0,52.0,29.83,NNW,335,1.0,4.0,87,0.00,,,0.00,,2013-06-12 11:12:00,
2013-06-12 06:24:00,57.0,53.0,29.85,NNW,344,2.0,3.0,87,0.00,,,0.00,,2013-06-12 11:24:00,
2013-06-12 06:33:00,57.0,53.0,29.85,NNW,344,2.0,3.0,87,0.00,,,0.00,,2013-06-12 11:33:00,
2013-06-12 06:43:00,58.0,53.0,29.86,NNW,348,0.0,4.0,84,0.00,,,0.00,,2013-06-12 11:43:00,
2013-06-12 06:53:00,58.0,53.0,29.85,North,356,2.0,3.0,84,0.00,,,0.00,,2013-06-12 11:53:00,
2013-06-12 07:01:00,58.0,53.0,29.85,North,356,2.0,3.0,84,0.00,,,0.00,,2013-06-12 12:01:00,
2013-06-12 07:11:00,59.0,54.0,29.84,NNW,331,1.0,4.0,85,0.00,,,0.00,,2013-06-12 12:11:00,
2013-06-12 07:23:00,60.0,54.0,29.85,NNW,338,2.0,5.0,81,0.00,,,0.00,,2013-06-12 12:23:00,
2013-06-12 07:33:00,60.0,54.0,29.85,NNW,338,2.0,5.0,81,0.00,,,0.00,,2013-06-12 12:33:00,
2013-06-12 07:42:00,60.0,54.0,29.86,WNW,300,3.0,7.0,82,0.00,,,0.00,,2013-06-12 12:42:00,
2013-06-12 07:53:00,60.0,54.0,29.86,North,8,4.0,7.0,80,0.00,,,0.00,,2013-06-12 12:53:00,
2013-06-12 08:01:00,60.0,54.0,29.86,North,8,4.0,7.0,80,0.00,,,0.00,,2013-06-12 13:01:00,
2013-06-12 08:12:00,60.0,54.0,29.86,NE,51,3.0,6.0,80,0.00,,,0.00,,2013-06-12 13:12:00,
2013-06-12 08:22:00,61.0,55.0,29.85,North,5,5.0,7.0,80,0.00,,,0.00,,2013-06-12 13:22:00,
2013-06-12 08:32:00,61.0,55.0,29.85,North,5,5.0,7.0,80,0.00,,,0.00,,2013-06-12 13:32:00,
2013-06-12 08:43:00,61.0,54.0,29.85,NNE,29,5.0,9.0,78,0.00,,,0.00,,2013-06-12 13:43:00,
2013-06-12 08:53:00,61.0,54.0,29.85,NNE,29,5.0,9.0,78,0.00,,,0.00,,2013-06-12 13:53:00,
2013-06-12 09:02:00,61.0,54.0,29.85,NNE,29,5.0,9.0,78,0.00,,,0.00,,2013-06-12 14:02:00,
2013-06-12 09:11:00,62.0,55.0,29.84,North,357,3.0,9.0,77,0.00,,,0.00,,2013-06-12 14:11:00,
2013-06-12 09:24:00,62.0,55.0,29.84,North,357,3.0,9.0,77,0.00,,,0.00,,2013-06-12 14:24:00,
2013-06-12 09:33:00,62.0,55.0,29.84,North,357,3.0,9.0,77,0.00,,,0.00,,2013-06-12 14:33:00,
2013-06-12 09:43:00,65.0,56.0,29.84,NNE,16,5.0,7.0,72,0.00,,,0.00,,2013-06-12 14:43:00,
2013-06-12 09:53:00,65.0,56.0,29.84,NNE,16,5.0,7.0,72,0.00,,,0.00,,2013-06-12 14:53:00,
2013-06-12 10:01:00,65.0,56.0,29.84,NNE,16,5.0,7.0,72,0.00,,,0.00,,2013-06-12 15:01:00,
2013-06-12 10:12:00,66.0,55.0,29.84,NNE,18,5.0,10.0,67,0.00,,,0.00,,2013-06-12 15:12:00,
2013-06-12 10:23:00,66.0,55.0,29.85,NW,319,4.0,8.0,68,0.00,,,0.00,,2013-06-12 15:23:00,
2013-06-12 10:33:00,66.0,55.0,29.85,NW,319,4.0,8.0,68,0.00,,,0.00,,2013-06-12 15:33:00,
2013-06-12 10:43:00,67.0,56.0,29.86,NNE,18,5.0,8.0,67,0.00,,,0.00,,2013-06-12 15:43:00,
2013-06-12 10:52:00,67.0,55.0,29.86,NE,56,4.0,9.0,65,0.00,,,0.00,,2013-06-12 15:52:00,
2013-06-12 11:01:00,67.0,55.0,29.86,NE,56,4.0,9.0,65,0.00,,,0.00,,2013-06-12 16:01:00,
2013-06-12 11:11:00,67.0,55.0,29.86,NE,56,4.0,9.0,65,0.00,,,0.00,,2013-06-12 16:11:00,
2013-06-12 11:22:00,68.0,55.0,29.88,NNE,26,4.0,9.0,64,0.00,,,0.00,,2013-06-12 16:22:00,
2013-06-12 11:32:00,68.0,55.0,29.88,NNE,26,4.0,9.0,64,0.00,,,0.00,,2013-06-12 16:32:00,
2013-06-12 11:43:00,69.0,58.0,29.89,NW,311,3.0,9.0,67,0.00,,,0.00,,2013-06-12 16:43:00,
2013-06-12 11:52:00,69.0,58.0,29.89,NW,311,3.0,9.0,67,0.00,,,0.00,,2013-06-12 16:52:00,
2013-06-12 12:01:00,69.0,55.0,29.90,North,351,4.0,6.0,60,0.00,,,0.00,,2013-06-12 17:01:00,
2013-06-12 12:11:00,69.0,55.0,29.90,North,351,4.0,6.0,60,0.00,,,0.00,,2013-06-12 17:11:00,
2013-06-12 12:22:00,69.0,55.0,29.90,North,351,4.0,6.0,60,0.00,,,0.00,,2013-06-12 17:22:00,
2013-06-12 12:33:00,70.0,56.0,29.90,North,4,5.0,12.0,62,0.00,,,0.00,,2013-06-12 17:33:00,
2013-06-12 12:42:00,70.0,55.0,29.90,NNW,328,5.0,10.0,60,0.00,,,0.00,,2013-06-12 17:42:00,
2013-06-12 12:52:00,70.0,55.0,29.90,NNW,328,5.0,10.0,60,0.00,,,0.00,,2013-06-12 17:52:00,
2013-06-12 13:02:00,70.0,55.0,29.90,WNW,302,6.0,11.0,59,0.00,,,0.00,,2013-06-12 18:02:00,
2013-06-12 13:12:00,70.0,55.0,29.89,North,352,4.0,10.0,58,0.00,,,0.00,,2013-06-12 18:12:00,
2013-06-12 13:22:00,70.0,55.0,29.89,North,352,4.0,10.0,58,0.00,,,0.00,,2013-06-12 18:22:00,
2013-06-12 13:32:00,70.0,55.0,29.89,North,352,4.0,10.0,58,0.00,,,0.00,,2013-06-12 18:32:00,
2013-06-12 13:43:00,70.0,54.0,29.89,North,8,5.0,10.0,57,0.00,,,0.00,,2013-06-12 18:43:00,
2013-06-12 13:53:00,70.0,54.0,29.89,North,8,5.0,10.0,57,0.00,,,0.00,,2013-06-12 18:53:00,
2013-06-12 14:01:00,71.0,54.0,29.89,NNW,334,4.0,9.0,56,0.00,,,0.00,,2013-06-12 19:01:00,
2013-06-12 14:11:00,71.0,54.0,29.89,NNW,334,4.0,9.0,56,0.00,,,0.00,,2013-06-12 19:11:00,
2013-06-12 14:22:00,71.0,54.0,29.89,NNW,334,4.0,9.0,56,0.00,,,0.00,,2013-06-12 19:22:00,
2013-06-12 14:32:00,69.0,53.0,29.89,WNW,295,5.0,11.0,57,0.00,,,0.00,,2013-06-12 19:32:00,
2013-06-12 14:42:00,70.0,54.0,29.90,NNW,333,5.0,10.0,56,0.00,,,0.00,,2013-06-12 19:42:00,
2013-06-12 14:52:00,70.0,54.0,29.90,NNW,333,5.0,10.0,56,0.00,,,0.00,,2013-06-12 19:52:00,
2013-06-12 15:01:00,70.0,53.0,29.90,NNE,20,4.0,12.0,55,0.00,,,0.00,,2013-06-12 20:01:00,
2013-06-12 15:11:00,70.0,52.0,29.90,WNW,288,4.0,11.0,53,0.00,,,0.00,,2013-06-12 20:11:00,
2013-06-12 15:21:00,70.0,52.0,29.90,WNW,288,4.0,11.0,53,0.00,,,0.00,,2013-06-12 20:21:00,
2013-06-12 15:32:00,70.0,53.0,29.90,NW,313,4.0,9.0,54,0.00,,,0.00,,2013-06-12 20:32:00,
2013-06-12 15:42:00,70.0,52.0,29.91,NW,311,5.0,12.0,52,0.00,,,0.00,,2013-06-12 20:42:00,
2013-06-12 15:54:00,70.0,52.0,29.91,NW,311,5.0,12.0,52,0.00,,,0.00,,2013-06-12 20:54:00,
2013-06-12 16:01:00,70.0,53.0,29.90,WNW,294,5.0,12.0,55,0.00,,,0.00,,2013-06-12 21:01:00,
2013-06-12 16:11:00,70.0,52.0,29.91,NNE,27,5.0,11.0,53,0.00,,,0.00,,2013-06-12 21:11:00,
2013-06-12 16:22:00,70.0,52.0,29.91,NNE,27,5.0,11.0,53,0.00,,,0.00,,2013-06-12 21:22:00,
2013-06-12 16:33:00,70.0,54.0,29.90,NNE,17,5.0,8.0,56,0.00,,,0.00,,2013-06-12 21:33:00,
2013-06-12 16:43:00,70.0,52.0,29.91,NNE,15,6.0,10.0,53,0.00,,,0.00,,2013-06-12 21:43:00,
2013-06-12 16:52:00,70.0,52.0,29.91,NNE,15,6.0,10.0,53,0.00,,,0.00,,2013-06-12 21:52:00,
2013-06-12 17:01:00,71.0,54.0,29.91,NNW,330,6.0,11.0,54,0.00,,,0.00,,2013-06-12 22:01:00,
2013-06-12 17:11:00,71.0,54.0,29.91,NNW,340,6.0,10.0,54,0.00,,,0.00,,2013-06-12 22:11:00,
2013-06-12 17:22:00,71.0,54.0,29.91,NNW,340,6.0,10.0,54,0.00,,,0.00,,2013-06-12 22:22:00,
2013-06-12 17:32:00,71.0,54.0,29.91,NNW,340,6.0,10.0,54,0.00,,,0.00,,2013-06-12 22:32:00,
2013-06-12 17:43:00,72.0,53.0,29.91,NNW,336,6.0,14.0,52,0.00,,,0.00,,2013-06-12 22:43:00,
2013-06-12 17:52:00,72.0,53.0,29.91,NNW,336,6.0,14.0,52,0.00,,,0.00,,2013-06-12 22:52:00,
2013-06-12 18:02:00,71.0,51.0,29.91,North,349,7.0,12.0,49,0.00,,,0.00,,2013-06-12 23:02:00,
2013-06-12 18:12:00,72.0,52.0,29.90,NNW,333,5.0,11.0,49,0.00,,,0.00,,2013-06-12 23:12:00,
2013-06-12 18:22:00,72.0,52.0,29.90,NNW,333,5.0,11.0,49,0.00,,,0.00,,2013-06-12 23:22:00,
2013-06-12 18:32:00,73.0,52.0,29.90,NW,309,4.0,15.0,48,0.00,,,0.00,,2013-06-12 23:32:00,
2013-06-12 18:42:00,73.0,52.0,29.90,NW,309,4.0,15.0,48,0.00,,,0.00,,2013-06-12 23:42:00,
2013-06-12 18:52:00,73.0,52.0,29.90,NW,309,4.0,15.0,48,0.00,,,0.00,,2013-06-12 23:52:00,
2013-06-12 19:01:00,72.0,49.0,29.90,NNW,334,8.0,14.0,44,0.00,,,0.00,,2013-06-13 00:01:00,
2013-06-12 19:11:00,71.0,51.0,29.91,NNW,338,4.0,13.0,49,0.00,,,0.00,,2013-06-13 00:11:00,
2013-06-12 19:22:00,71.0,51.0,29.91,NNW,338,4.0,13.0,49,0.00,,,0.00,,2013-06-13 00:22:00,
2013-06-12 19:32:00,72.0,51.0,29.91,NW,316,5.0,11.0,48,0.00,,,0.00,,2013-06-13 00:32:00,
2013-06-12 19:42:00,71.0,51.0,29.91,North,352,3.0,10.0,50,0.00,,,0.00,,2013-06-13 00:42:00,
2013-06-12 19:52:00,71.0,51.0,29.91,North,352,3.0,10.0,50,0.00,,,0.00,,2013-06-13 00:52:00,
2013-06-12 20:01:00,71.0,51.0,29.91,North,352,3.0,10.0,50,0.00,,,0.00,,2013-06-13 01:01:00,
2013-06-12 20:12:00,70.0,52.0,29.92,NNE,19,4.0,9.0,53,0.00,,,0.00,,2013-06-13 01:12:00,
2013-06-12 20:22:00,70.0,52.0,29.92,NNE,19,4.0,9.0,53,0.00,,,0.00,,2013-06-13 01:22:00,
2013-06-12 20:32:00,71.0,52.0,29.92,North,4,5.0,9.0,52,0.00,,,0.00,,2013-06-13 01:32:00,
2013-06-12 20:43:00,71.0,53.0,29.93,NNE,33,5.0,10.0,53,0.00,,,0.00,,2013-06-13 01:43:00,
2013-06-12 20:53:00,71.0,53.0,29.93,NNE,33,5.0,10.0,53,0.00,,,0.00,,2013-06-13 01:53:00,
2013-06-12 21:01:00,70.0,54.0,29.93,North,359,4.0,8.0,56,0.00,,,0.00,,2013-06-13 02:01:00,
2013-06-12 21:12:00,69.0,54.0,29.94,North,8,4.0,6.0,58,0.00,,,0.00,,2013-06-13 02:12:00,
2013-06-12 21:22:00,69.0,54.0,29.94,North,8,4.0,6.0,58,0.00,,,0.00,,2013-06-13 02:22:00,
2013-06-12 21:33:00,67.0,54.0,29.94,NNE,18,2.0,6.0,62,0.00,,,0.00,,2013-06-13 02:33:00,
2013-06-12 21:42:00,66.0,53.0,29.95,ENE,74,0.0,3.0,64,0.00,,,0.00,,2013-06-13 02:42:00,
2013-06-12 21:52:00,66.0,53.0,29.95,ENE,74,0.0,3.0,64,0.00,,,0.00,,2013-06-13 02:52:00,
2013-06-12 22:02:00,64.0,53.0,29.95,North,356,0.0,2.0,68,0.00,,,0.00,,2013-06-13 03:02:00,
2013-06-12 22:11:00,64.0,54.0,29.95,NNW,346,0.0,1.0,69,0.00,,,0.00,,2013-06-13 03:11:00,
2013-06-12 22:22:00,64.0,54.0,29.95,NNW,346,0.0,1.0,69,0.00,,,0.00,,2013-06-13 03:22:00,
2013-06-12 22:33:00,62.0,54.0,29.96,ENE,75,0.0,1.0,76,0.00,,,0.00,,2013-06-13 03:33:00,
2013-06-12 22:42:00,60.0,53.0,29.96,ENE,75,0.0,0.0,77,0.00,,,0.00,,2013-06-13 03:42:00,
2013-06-12 22:52:00,60.0,53.0,29.96,ENE,75,0.0,0.0,77,0.00,,,0.00,,2013-06-13 03:52:00,
2013-06-12 23:01:00,60.0,53.0,29.96,ENE,75,0.0,0.0,77,0.00,,,0.00,,2013-06-13 04:01:00,
2013-06-12 23:11:00,60.0,53.0,29.96,ENE,75,0.0,0.0,77,0.00,,,0.00,,2013-06-13 04:11:00,
2013-06-12 23:22:00,60.0,53.0,29.96,ENE,75,0.0,0.0,77,0.00,,,0.00,,2013-06-13 04:22:00,
2013-06-12 23:43:00,60.0,53.0,29.97,WNW,301,0.0,0.0,79,0.00,,,0.00,,2013-06-13 04:43:00,
2013-06-12 23:53:00,60.0,53.0,29.97,WNW,301,0.0,0.0,79,0.00,,,0.00,,2013-06-13 04:53:00,